• In Latvia
  • List of Countries
  • For 7 days
  • Water Temperature
  • Satellite Maps
  • Weather Map
  • Weather Widgets
  • user-avatar
    Login

    Hourly Weather Balvi

    Today, 17 October, Tuesday

    Time Temperature Precipitation Wind Pressure Humidity
    00:00 +10°C° 0 mm 4 mps 750 mmHg 93%
    01:00 +9°C° 0 mm 3 mps 751 mmHg 93%
    02:00 +9°C° 0 mm 3 mps 751 mmHg 94%
    03:00 +8°C° 0 mm 3 mps 752 mmHg 94%
    04:00 +8°C° 0 mm 3 mps 752 mmHg 93%
    05:00 +7°C° 0 mm 2 mps 752 mmHg 93%
    06:00 +7°C° 0 mm 2 mps 752 mmHg 92%
    07:00 +7°C° 0 mm 2 mps 753 mmHg 91%
    08:00 +7°C° 0 mm 2 mps 753 mmHg 87%
    09:00 +9°C° 0 mm 2 mps 753 mmHg 83%
    10:00 +10°C° 0 mm 2 mps 753 mmHg 78%
    11:00 +12°C° 0 mm 2 mps 753 mmHg 74%
    12:00 +12°C° 0 mm 3 mps 752 mmHg 74%
    13:00 +13°C° 0 mm 3 mps 752 mmHg 75%
    14:00 +14°C° 0 mm 4 mps 751 mmHg 77%
    15:00 +13°C° 0.1 mm 4 mps 751 mmHg 80%
    16:00 +13°C° 0.1 mm 4 mps 750 mmHg 83%
    17:00 +13°C° 0.1 mm 5 mps 749 mmHg 87%
    18:00 +13°C° 0 mm 5 mps 748 mmHg 87%
    19:00 +13°C° 0 mm 5 mps 748 mmHg 87%
    20:00 +13°C° 0 mm 6 mps 747 mmHg 87%
    21:00 +13°C° 0 mm 6 mps 747 mmHg 86%
    22:00 +13°C° 0 mm 6 mps 746 mmHg 85%
    23:00 +13°C° 0 mm 6 mps 746 mmHg 84%

    Tomorrow, 18 October, Wednesday

    Time Temperature Precipitation Wind Pressure Humidity
    00:00 +13°C° 0.1 mm 5 mps 746 mmHg 84%
    01:00 +12°C° 0.1 mm 5 mps 746 mmHg 84%
    02:00 +12°C° 0.1 mm 5 mps 746 mmHg 84%
    03:00 +12°C° 0.1 mm 5 mps 745 mmHg 83%
    04:00 +10°C° 0.1 mm 5 mps 745 mmHg 82%
    05:00 +10°C° 0.1 mm 5 mps 745 mmHg 82%
    06:00 +10°C° 0.1 mm 5 mps 745 mmHg 81%
    07:00 +10°C° 0.1 mm 5 mps 745 mmHg 80%
    08:00 +10°C° 0.1 mm 5 mps 744 mmHg 80%
    09:00 +10°C° 0 mm 5 mps 744 mmHg 79%
    10:00 +10°C° 0 mm 5 mps 745 mmHg 78%
    11:00 +11°C° 0 mm 6 mps 745 mmHg 76%
    12:00 +11°C° 0.1 mm 6 mps 745 mmHg 77%
    13:00 +11°C° 0.1 mm 6 mps 745 mmHg 78%
    14:00 +11°C° 0.1 mm 6 mps 745 mmHg 79%
    15:00 +10°C° 0.2 mm 5 mps 745 mmHg 81%
    16:00 +10°C° 0.2 mm 5 mps 746 mmHg 83%
    17:00 +11°C° 0.2 mm 4 mps 746 mmHg 85%
    18:00 +8°C° 0.1 mm 4 mps 747 mmHg 87%
    19:00 +8°C° 0.1 mm 3 mps 747 mmHg 88%
    20:00 +7°C° 0.1 mm 3 mps 748 mmHg 90%
    21:00 +6°C° 0 mm 2 mps 748 mmHg 91%
    22:00 +6°C° 0 mm 2 mps 748 mmHg 92%
    23:00 +5°C° 0 mm 2 mps 749 mmHg 93%

    Day after tomorrow, 19 October, Thursday

    Time Temperature Precipitation Wind Pressure Humidity
    00:00 +5°C° 0 mm 2 mps 749 mmHg 94%
    01:00 +5°C° 0 mm 2 mps 749 mmHg 94%
    02:00 +5°C° 0 mm 2 mps 749 mmHg 95%
    03:00 +4°C° 0 mm 2 mps 749 mmHg 95%
    04:00 +4°C° 0 mm 2 mps 750 mmHg 94%
    05:00 +3°C° 0 mm 3 mps 750 mmHg 94%
    06:00 +3°C° 0 mm 3 mps 750 mmHg 93%
    07:00 +4°C° 0 mm 3 mps 750 mmHg 92%
    08:00 +4°C° 0 mm 3 mps 750 mmHg 92%
    09:00 +5°C° 0 mm 3 mps 751 mmHg 85%
    10:00 +8°C° 0 mm 3 mps 751 mmHg 78%
    11:00 +9°C° 0 mm 3 mps 751 mmHg 72%
    12:00 +9°C° 0 mm 3 mps 751 mmHg 69%
    13:00 +10°C° 0 mm 3 mps 752 mmHg 67%
    14:00 +10°C° 0 mm 3 mps 752 mmHg 65%
    15:00 +9°C° 0.1 mm 3 mps 752 mmHg 71%
    16:00 +8°C° 0.1 mm 2 mps 752 mmHg 77%
    17:00 +7°C° 0.1 mm 2 mps 752 mmHg 83%
    18:00 +6°C° 0.1 mm 2 mps 753 mmHg 86%
    19:00 +6°C° 0.1 mm 2 mps 753 mmHg 89%
    20:00 +5°C° 0.1 mm 2 mps 754 mmHg 92%
    21:00 +4°C° 0 mm 2 mps 754 mmHg 94%
    22:00 +4°C° 0 mm 2 mps 754 mmHg 95%
    23:00 +4°C° 0 mm 1 mps 755 mmHg 96%

    20 October, Friday

    Time Temperature Precipitation Wind Pressure Humidity
    00:00 +4°C° 0 mm 1 mps 755 mmHg 96%
    01:00 +4°C° 0 mm 1 mps 755 mmHg 96%
    02:00 +4°C° 0 mm 1 mps 756 mmHg 95%
    03:00 +3°C° 0 mm 1 mps 756 mmHg 95%
    04:00 +3°C° 0 mm 1 mps 756 mmHg 95%
    05:00 +3°C° 0 mm 1 mps 756 mmHg 95%
    06:00 +3°C° 0 mm 1 mps 757 mmHg 95%
    07:00 +3°C° 0 mm 1 mps 757 mmHg 95%
    08:00 +3°C° 0 mm 1 mps 757 mmHg 94%
    09:00 +5°C° 0 mm 1 mps 758 mmHg 88%
    10:00 +6°C° 0 mm 1 mps 758 mmHg 82%
    11:00 +8°C° 0 mm 1 mps 758 mmHg 75%
    12:00 +7°C° 0 mm 2 mps 758 mmHg 73%
    13:00 +7°C° 0 mm 2 mps 758 mmHg 70%
    14:00 +8°C° 0 mm 2 mps 758 mmHg 67%
    15:00 +7°C° 0 mm 2 mps 758 mmHg 73%
    16:00 +7°C° 0 mm 1 mps 758 mmHg 78%
    17:00 +5°C° 0 mm 1 mps 759 mmHg 84%
    18:00 +5°C° 0 mm 1 mps 759 mmHg 86%
    19:00 +4°C° 0 mm 1 mps 759 mmHg 89%
    20:00 +4°C° 0 mm 1 mps 759 mmHg 92%
    21:00 +3°C° 0 mm 1 mps 760 mmHg 93%
    22:00 +3°C° 0 mm 1 mps 760 mmHg 93%
    23:00 +3°C° 0 mm 1 mps 760 mmHg 94%

    21 October, Saturday

    Time Temperature Precipitation Wind Pressure Humidity
    00:00 +2°C° 0 mm 1 mps 760 mmHg 94%
    01:00 +2°C° 0 mm 1 mps 760 mmHg 95%
    02:00 +2°C° 0 mm 1 mps 760 mmHg 95%
    03:00 +1°C° 0 mm 1 mps 760 mmHg 94%
    04:00 +1°C° 0 mm 1 mps 760 mmHg 94%
    05:00 +1°C° 0 mm 1 mps 761 mmHg 94%
    06:00 +1°C° 0 mm 1 mps 761 mmHg 93%
    07:00 +1°C° 0 mm 1 mps 761 mmHg 91%
    08:00 +1°C° 0 mm 1 mps 761 mmHg 89%
    09:00 +3°C° 0 mm 1 mps 761 mmHg 81%
    10:00 +4°C° 0 mm 1 mps 761 mmHg 73%
    11:00 +6°C° 0 mm 1 mps 761 mmHg 64%
    12:00 +6°C° 0 mm 1 mps 761 mmHg 62%
    13:00 +7°C° 0 mm 1 mps 761 mmHg 59%
    14:00 +7°C° 0 mm 1 mps 760 mmHg 56%
    15:00 +6°C° 0 mm 1 mps 760 mmHg 62%
    16:00 +4°C° 0 mm 1 mps 760 mmHg 67%
    17:00 +3°C° 0 mm 1 mps 760 mmHg 73%
    18:00 +2°C° 0 mm 1 mps 760 mmHg 75%
    19:00 +1°C° 0 mm 0 mps 760 mmHg 77%
    20:00 0°C° 0 mm 0 mps 760 mmHg 80%
    21:00 0°C° 0 mm 0 mps 760 mmHg 80%
    22:00 0°C° 0 mm 0 mps 760 mmHg 81%
    23:00 0°C° 0 mm 0 mps 760 mmHg 82%

    22 October, Sunday

    Time Temperature Precipitation Wind Pressure Humidity
    00:00 +1°C° 0 mm 1 mps 760 mmHg 83%
    01:00 0°C° 0 mm 1 mps 760 mmHg 83%
    02:00 0°C° 0 mm 1 mps 760 mmHg 84%
    03:00 0°C° 0 mm 1 mps 760 mmHg 84%
    04:00 0°C° 0 mm 1 mps 759 mmHg 85%
    05:00 0°C° 0 mm 1 mps 759 mmHg 85%
    06:00 0°C° 0 mm 1 mps 759 mmHg 84%
    07:00 +1°C° 0 mm 1 mps 759 mmHg 83%
    08:00 +1°C° 0 mm 1 mps 759 mmHg 82%
    09:00 +3°C° 0 mm 1 mps 759 mmHg 76%
    10:00 +4°C° 0 mm 1 mps 759 mmHg 69%
    11:00 +5°C° 0 mm 2 mps 758 mmHg 63%
    12:00 +5°C° 0 mm 2 mps 758 mmHg 61%
    13:00 +6°C° 0 mm 2 mps 757 mmHg 59%
    14:00 +6°C° 0 mm 2 mps 757 mmHg 58%
    15:00 +5°C° 0 mm 2 mps 757 mmHg 65%
    16:00 +4°C° 0 mm 2 mps 756 mmHg 72%
    17:00 +2°C° 0 mm 2 mps 756 mmHg 79%
    18:00 +2°C° 0 mm 2 mps 756 mmHg 81%
    19:00 +1°C° 0 mm 2 mps 755 mmHg 84%
    20:00 +1°C° 0 mm 2 mps 755 mmHg 87%
    21:00 +1°C° 0 mm 2 mps 755 mmHg 87%
    22:00 +1°C° 0 mm 2 mps 755 mmHg 88%
    23:00 +1°C° 0 mm 2 mps 754 mmHg 88%
    Show more